Tracking 19149 objects as of 21-Apr-2018
HD Live streaming from Space Station
objects crossing your sky now

FENGYUN 1C DEB

Track FENGYUN 1C DEB now!
10-day predictions


NORAD ID: 30607
Int'l Code: 1999-025AMN
Perigee: 766.8 km
Apogee: 828.7 km
Inclination: 98.9 °
Period: 100.7 minutes
Semi major axis: 7168 km
RCS: 0.039 m2 (small)
Launch date: May 10, 1999
Source: People's Republic of China (PRC)
Launch site: Taiyaun Space Center, China (TSC)

Note: This is SATELLITE DEBRIS
aabbcc
Your satellite tracking list
Your tracking list is empty




NASA's NSSDC Master Catalog

Two Line Element Set (TLE):
1 30607U 99025AMN 18110.73414517  .00001532  00000-0  60149-3 0  9998
2 30607  98.9135 173.7443 0043214   6.5142 353.6592 14.30340604578170
Source of the keplerian elements: AFSPC